User: anonymous   Login
Location: Unspecified
(0.0000°N, 0.0000°E)
Time: 21:02:38
(UTC+00:00)
Language:

STARLINK-31312 - Orbit

View from above orbital plane
View from above orbital plane
View from above satellite
View from above satellite

Ground track
Ground track

The orbit is defined by the following mean orbital elements,

1 59152U          26145.60348902 +.00000000 +00000-0 +38544-4 0 00003
2 59152  43.0035 341.9604 0001405 268.5132  91.5559 15.27572559    05
Epoch (UTC): 25 May 2026 14:29:01
Eccentricity: 0.0001405
inclination: 43.0035°
perigee height: 482 km
apogee height: 484 km
right ascension of ascending node: 341.9604°
argument of perigee: 268.5132°
revolutions per day: 15.27572559
mean anomaly at epoch: 91.5559°

The dashed part of the orbit path shows where the satellite is in the earth's shadow,  

DLR